Portada
METAR-TAF:

METAR-TAF

Aeroports :

Wajima, Japó

latitud: 37-17-36N, longitud: 136-57-44E, altitud: 219 m

Observació

L'informe es va fer fa 8 hores i 35 minuts, a les 10:00 UTC
Vent 5 kt del Nord/Nord-Est, variant entre Nord i Est
Temperatura 5°C
Humitat 87%
Pressió 1022 hPa
Visibilitat 10 km o més
Escasses núvols a una alçada de 1000 ft
Núvols disperses a una alçada de 1500 ft
Cel ennuvolat a una alçada de 3000 ft

METAR: RJNW 241000Z 03005KT 350V080 9999 FEW010 SCT015 BKN030 05/03 Q1022

Hora: 03:35 (18:35 UTC)


TAF: manca

Observacions i pronòstics meteorològics de més de 4000 aeroports (METAR i TAF).

Les estacions disponibles són els punts grocs i vermells al mapa.

Posi el ratolí al punt desitjat per veure el nom de l'estació.

Feu clic per veure les observacions i els pronòstics meteorològics.

Per canviar el mapa: feu clic els botons verds amb una creu de color negre per apropar; al botó verd amb un guió per allunyar la imatge; o en les fletxes verdes per a mapes adjacents.


METAR-TAF: